User: anonymous   Login
Location: Albany
(35.0000°S, 118.0000°E)
Time: 11:14:04
(UTC-04:00)
Language:

Cosmos 1758 Rocket - Orbit

View from above orbital plane
View from above orbital plane
View from above satellite
View from above satellite

Ground track
Ground track

The orbit data is extracted from the following two-line orbital elements,

1 16792U 86046B   17086.96677845 +.00000140 +00000-0 +14238-4 0  9990
2 16792 082.4799 278.8266 0023780 197.1929 274.0076 14.83122223641750
Epoch (UTC): 27 March 2017 23:12:09
Eccentricity: 0.0023780
inclination: 82.4799°
perigee height: 603 km
apogee height: 636 km
right ascension of ascending node: 278.8266°
argument of perigee: 197.1929°
revolutions per day: 14.83122223
mean anomaly at epoch: 274.0076°
orbit number at epoch: 64175

The dashed part of the orbit path shows where the satellite is in the earth's shadow,  

DLR